Regional Weather Roundup
Issued by NWS

Home | Current Version | Previous Version | Graphics & Text | Print | Product List | Glossary On
Versions: 1 2 3 4 5 6 7 8 9 10 11 12 13 14 15 16 17 18 19 20 21 22 23 24 25 26 27 28 29 30 31 32 33 34 35 36 37 38 39 40 41 42 43 44 45 46 47 48 49 50
000
ASUS43 KFSD 250502
RWRSD

WEATHER ROUNDUP FOR SOUTH DAKOTA
NATIONAL WEATHER SERVICE SIOUX FALLS SD
1200 AM CDT SUN JUN 25 2017

NOTE: "FAIR" INDICATES FEW OR NO CLOUDS BELOW 12,000 FEET WITH NO
SIGNIFICANT WEATHER AND/OR OBSTRUCTIONS TO VISIBILITY.


SDZ001>005-009-010-012>017-250600-
NORTHWEST AND NORTH CENTRAL SOUTH DAKOTA

CITY           SKY/WX    TMP DP  RH WIND       PRES   REMARKS
BUFFALO          N/A     52  31  44 NE7       30.29R
FAITH            N/A     50  35  56 N6        30.32R
MOBRIDGE       CLEAR     47  39  74 N6        30.27R
$$

SDZ012>016-024>037-041>051-057-063-072>074-250600-
SOUTHWEST AND SOUTH CENTRAL SOUTH DAKOTA

CITY           SKY/WX    TMP DP  RH WIND       PRES   REMARKS
RAPID CTY ARPT CLEAR     50  31  48 N9        30.35R
PIERRE         NOT AVBL
CUSTER         PTCLDY    52  26  36 NE8       30.41R
ELLSWORTH AFB  CLEAR     58  31  35 N6        30.35R
PHILIP         CLOUDY    55  34  45 NE10      30.31R
PINE RIDGE     MOCLDY    51  39  63 E6        30.34R
SPEARFISH      FAIR      46  36  66 S6        30.39R
WINNER         FAIR      57  37  47 CALM      30.30R
$$

SDZ004>011-016>023-039-040-250600-
NORTHEAST SOUTH DAKOTA

CITY           SKY/WX    TMP DP  RH WIND       PRES   REMARKS
ABERDEEN       CLEAR     51  44  77 N7        30.25R
WATERTOWN      CLOUDY    55  45  68 NW14      30.21S
BROOKINGS      MOCLDY    55  45  68 NW9       30.22R
SISSETON         N/A     55  44  66 N21       30.19R
$$

SDZ017-020-022-023-036>040-048>070-250600-
SOUTHEAST SOUTH DAKOTA

CITY           SKY/WX    TMP DP  RH WIND       PRES   REMARKS
SIOUX FALLS    PTCLDY    52  45  77 NW7       30.21S
HURON          CLEAR     47  44  90 NW6       30.25R
CHAMBERLAIN    MOCLDY    57  43  58 CALM      30.28R
YANKTON        CLEAR     54  41  61 N9        30.25R
$$

ABBREVIATIONS USED IN REMARKS
   TC - TEMPERATURE IN CELSIUS
  WCI - WIND CHILL INDEX
   HX - HEAT INDEX
  VSB - VISIBILITY




USA.gov is the U.S. government's official web portal to all federal, state and local government web resources and services.